Tracking 25534 objects as of 28-Jan-2022
HD Live streaming from Space Station
objects crossing your sky now

STARLINK-3337

Track STARLINK-3337 now!
10-day predictions
STARLINK-3337 is classified as:


NORAD ID: 50826
Int'l Code: 2022-001Z
Perigee: 355.6 km
Apogee: 358.2 km
Inclination: 53.2 °
Period: 91.5 minutes
Semi major axis: 6727 km
RCS: Unknown
Launch date: January 6, 2022
Source: United States (US)
Launch site: AIR FORCE EASTERN TEST RANGE (AFETR)
aabbcc
Your satellite tracking list
Your tracking list is empty




NASA's NSSDC Master Catalog

Two Line Element Set (TLE):
1 50826U 22001Z   22028.45090589 -.00000599  00000-0  16017-6 0  9995
2 50826  53.2153  92.3623 0001929  49.2656 310.8531 15.73198780  3430
Source of the keplerian elements: AFSPC